Wallops Island, VA

9:51 AM EST on December 07, 2019 (GMT -0500)
Wallops Flight Facility

Weather History for KWAL - October, 2019

Change the Weather History Date:

Friday, October 11, 2019

  Actual Average Record
Temperature  
Mean Temperature 61 °F 61 °F  
Max Temperature 70 °F 70 °F 83 °F (2018)
Min Temperature 51 °F 52 °F 40 °F (1979)
Degree Days  
Heating Degree Days 4    
Month to date heating degree days 15  
Since 1 July heating degree days 24  
Cooling Degree Days 0    
Month to date cooling degree days 53  
Year to date cooling degree days 1800  
Growing Degree Days 10 (Base 50)    
Moisture  
Dew Point 46 °F    
Average Humidity 67    
Maximum Humidity 89    
Minimum Humidity 45    
Precipitation  
Precipitation T in 0.10 in 4.05 in (2017)
Month to date precipitation 0.03 1.14  
Year to date precipitation 34.36 32.51  
Sea Level Pressure  
Sea Level Pressure 30.06 in    
Wind  
Wind Speed 8 mph (North)    
Max Wind Speed 17 mph    
Max Gust Speed 26 mph    
Visibility 10 miles    
Events      
T = Trace of Precipitation, MM = Missing Value Source: NWS Daily Summary

Daily Weather History Graph

Daily Weather History Graph

Search for Another Location

Airport or City:

Astronomy

Oct. 11, 2019 Rise Set
Actual Time 7:06 AM EDT 6:30 PM EDT
Civil Twilight 6:40 AM EDT 6:56 PM EDT
Nautical Twilight 6:09 AM EDT 7:27 PM EDT
Astronomical Twilight 5:39 AM EDT 7:57 PM EDT
Moon 5:55 PM EDT (10/11) 4:48 AM EDT (10/11)
Length of Visible Light 12h 16m
Length of Day
11h 23m
Waxing Gibbous, 96% of the Moon is Illuminated
Oct 11
Waxing Gibbous
Oct 13
Full
Oct 21
Last Quarter
Oct 27
New
Nov 4
First Quarter

Hourly Weather History & Observations

Time (EDT) Temp. Dew Point Humidity Pressure Visibility Wind Dir Wind Speed Gust Speed Precip Events Conditions
12:54 AM 57.9 °F 45.0 °F 62% 30.09 in 10.0 mi North 5.8 mph - N/A   Clear
1:54 AM 55.9 °F 45.0 °F 67% 30.09 in 10.0 mi NNW 5.8 mph - N/A   Partly Cloudy
2:54 AM 55.9 °F 45.0 °F 67% 30.08 in 10.0 mi NNW 6.9 mph - N/A   Clear
3:54 AM 54.0 °F 44.1 °F 69% 30.08 in 10.0 mi NNW 6.9 mph - N/A   Partly Cloudy
4:54 AM 54.0 °F 43.0 °F 66% 30.08 in 10.0 mi NNW 6.9 mph - N/A   Clear
5:54 AM 53.1 °F 43.0 °F 69% 30.08 in 10.0 mi NNW 5.8 mph - N/A   Clear
6:54 AM 52.0 °F 42.1 °F 69% 30.08 in 10.0 mi NNW 4.6 mph - N/A   Clear
7:54 AM 53.1 °F 41.0 °F 64% 30.08 in 10.0 mi NNW 8.1 mph - N/A   Partly Cloudy
8:54 AM 57.0 °F 41.0 °F 55% 30.09 in 10.0 mi NNW 8.1 mph - N/A   Clear
9:54 AM 61.0 °F 42.1 °F 50% 30.09 in 10.0 mi North 11.5 mph 20.7 mph 0.00 in   Partly Cloudy
10:54 AM 64.0 °F 44.1 °F 48% 30.08 in 10.0 mi North 10.4 mph - N/A   Scattered Clouds
11:54 AM 68.0 °F 46.0 °F 45% 30.07 in 10.0 mi NNE 15.0 mph - N/A   Partly Cloudy
12:54 PM 66.9 °F 46.9 °F 49% 30.06 in 10.0 mi North 9.2 mph 21.9 mph N/A   Mostly Cloudy
1:54 PM 66.9 °F 48.0 °F 51% 30.04 in 10.0 mi NNE 15.0 mph 19.6 mph N/A   Mostly Cloudy
2:54 PM 64.0 °F 50.0 °F 60% 30.04 in 10.0 mi NE 10.4 mph - N/A   Overcast
3:54 PM 66.0 °F 48.0 °F 52% 30.03 in 10.0 mi NNE 9.2 mph - N/A   Overcast
4:54 PM 64.9 °F 48.0 °F 54% 30.03 in 10.0 mi NNE 10.4 mph - N/A   Overcast
5:54 PM 64.0 °F 48.0 °F 56% 30.03 in 10.0 mi NE 10.4 mph - N/A   Overcast
6:54 PM 61.0 °F 48.0 °F 62% 30.04 in 10.0 mi NNE 4.6 mph - N/A   Scattered Clouds
7:54 PM 59.0 °F 48.9 °F 69% 30.04 in 10.0 mi NNE 5.8 mph - N/A   Scattered Clouds
8:54 PM 57.9 °F 48.9 °F 72% 30.04 in 10.0 mi North 4.6 mph - N/A   Clear
9:54 PM 54.0 °F 48.9 °F 83% 30.03 in 10.0 mi NW 4.6 mph - N/A   Clear
10:54 PM 52.0 °F 48.0 °F 86% 30.04 in 10.0 mi NW 4.6 mph - N/A   Clear
11:54 PM 54.0 °F 50.0 °F 86% 30.02 in 10.0 mi North 4.6 mph - N/A   Clear